Location: Windsor
(43.2292°N, 89.3015°W)
Time: 03:04:43
(UTC+00:00)

N. Korean satellite - Visible Passes

Search period start: 27 January 2022 00:00
Search period end: 06 February 2022 00:00
Orbit: 447 x 490 km, 97.3° (Epoch: 26 January)

Date Brightness Start Highest point End Pass type
(mag) Time Alt. Az. Time Alt. Az. Time Alt. Az.
27 Jan 10.0 10:03:56 10° ENE 10:04:54 11° E 10:04:56 11° E visible
27 Jan 6.7 11:34:47 10° N 11:38:20 50° WNW 11:39:01 43° WSW visible
28 Jan 6.9 11:05:31 10° NNE 11:09:08 66° E 11:09:56 49° SSE visible
29 Jan 8.6 10:36:39 10° NE 10:39:49 27° E 10:40:55 23° SE visible
29 Jan 7.9 12:10:05 10° NNW 12:12:46 20° WNW 12:14:59 12° WSW visible
30 Jan 9.8 10:08:41 10° ENE 10:10:20 13° E 10:11:54 10° ESE visible
30 Jan 6.9 11:40:14 10° N 11:43:41 42° WNW 11:45:59 18° SW visible
31 Jan 6.6 11:10:50 10° NNE 11:14:28 79° ESE 11:17:05 18° S visible
01 Feb 8.3 10:41:49 10° NNE 10:45:07 32° E 10:48:22 10° SSE visible
01 Feb 8.1 12:15:34 10° NNW 12:18:00 17° WNW 12:20:25 10° WSW visible
02 Feb 9.7 10:13:33 10° ENE 10:15:37 14° E 10:17:41 10° SE visible
02 Feb 7.1 11:45:33 10° N 11:48:54 36° WNW 11:52:13 10° SW visible
03 Feb 6.4 11:16:01 10° NNE 11:19:40 88° WNW 11:23:15 10° SSW visible
04 Feb 8.0 10:46:54 10° NNE 10:50:17 37° E 10:53:37 10° SSE visible
04 Feb 8.2 12:20:58 10° NNW 12:23:05 15° WNW 12:25:12 10° WSW visible
05 Feb 9.5 10:18:23 10° NE 10:20:45 17° E 10:23:06 10° SE visible
05 Feb 7.3 11:50:44 10° N 11:53:58 31° WNW 11:57:10 10° SW visible
